This demonstration page uses our WeatherBlox Daily Observations layout. Learn more.

Left ArrowRight Arrow

Hourly Observations for December 12, 2015

Temp ( °F °C ) Dew Point ( °F °C ) Humidity (%) Winds ( mph kmh ) Pressure ( in mb ) Visibility ( mi km ) Precip ( " mm )
12:58 am 00:58 Mostly Cloudy 40 4.4 36 2.3 86 86 NW 6 9 29.79 1009 10 16 0.00 0.00
1:58 am 01:58 Cloudy 40 4.6 36 2.4 86 86 NW 8 13 29.80 1009 10 16 0.00 0.00
2:58 am 02:58 Mostly Clear 40 4.2 36 2.1 86 86 NNW 6 9 29.81 1010 10 16 0.00 0.00
3:58 am 03:58 Mostly Clear 40 4.2 36 2.4 88 88 N 9 15 29.82 1010 10 16 0.00 0.00
4:58 am 04:58 Mostly Clear 39 3.9 37 2.5 91 91 N 10 17 29.83 1010 10 16 0.00 0.00
5:03 am 05:03 Mostly Clear 39 4 36 2 87 87 N 7 11 29.83 1010 10 16 0.00 0.00
5:10 am 05:10 Partly Cloudy 39 4 36 2 87 87 N 12 19 29.83 1010 10 16 0.00 0.00
5:41 am 05:41 Partly Cloudy 37 3 36 2 93 93 NNW 5 7 29.85 1011 10 16 0.00 0.00
5:58 am 05:58 Mostly Clear 37 2.9 36 2.1 95 95 N 5 7 29.87 1012 10 16 0.00 0.00
6:58 am 06:58 Clear 37 2.7 35 1.9 95 95 NNW 6 9 29.89 1012 10 16 0.00 0.00
7:11 am 07:11 Mostly Clear 37 3 36 2 93 93 NNW 7 11 29.91 1013 10 16 0.00 0.00
7:23 am 07:23 Mostly Cloudy 37 3 36 2 93 93 NNW 6 9 29.91 1013 10 16 0.00 0.00
7:38 am 07:38 Cloudy 37 3 36 2 93 93 N 8 13 29.91 1013 8 13 0.00 0.00
7:58 am 07:58 Cloudy 37 3 36 2.3 95 95 N 7 11 29.90 1013 8 13 0.00 0.00
8:26 am 08:26 Cloudy 37 3 36 2 93 93 N 9 15 29.91 1013 9 14 0.00 0.00
8:52 am 08:52 Cloudy 37 3 37 3 100 100 N 7 11 29.91 1013 10 16 0.00 0.00
8:58 am 08:58 Cloudy 38 3.4 37 2.6 95 95 NNE 7 11 29.91 1013 10 16 0.00 0.00
9:22 am 09:22 Cloudy 39 4 37 3 93 93 N 6 9 29.94 1014 10 16 0.00 0.00
9:53 am 09:53 Cloudy 39 4 37 3 93 93 N 10 17 29.94 1014 10 16 0.00 0.00
9:58 am 09:58 Cloudy 39 4 37 2.7 91 91 N 12 19 29.94 1014 10 16 0.00 0.00
10:29 am 10:29 Cloudy 39 4 37 3 93 93 NNE 10 17 29.94 1014 10 16 0.00 0.00
10:58 am 10:58 Cloudy 40 4.6 37 2.9 89 89 NNE 7 11 29.95 1014 10 16 0.00 0.00
11:58 am 11:58 Cloudy 41 4.9 38 3.2 89 89 N 10 17 29.93 1014 10 16 0.00 0.00
12:58 pm 12:58 Cloudy 42 5.4 38 3.4 87 87 N 7 11 29.92 1013 10 16 0.00 0.00
1:10 pm 13:10 Cloudy 41 5 37 3 87 87 N 10 17 29.91 1013 10 16 0.00 0.00
1:58 pm 13:58 Cloudy 42 5.4 38 3.5 88 88 N 9 15 29.90 1013 10 16 0.00 0.00
2:04 pm 14:04 Cloudy 41 5 39 4 93 93 NNE 9 15 29.91 1013 10 16 0.00 0.00
2:20 pm 14:20 Cloudy 41 5 39 4 93 93 NNE 9 15 29.91 1013 9 14 0.00 0.00
2:58 pm 14:58 Cloudy 42 5.3 39 3.8 90 90 N 8 13 29.90 1013 8 13 0.00 0.00
3:50 pm 15:50 Cloudy 41 5 39 4 93 93 NNE 7 11 29.91 1013 8 13 0.00 0.00
3:58 pm 15:58 Cloudy 42 5.4 39 3.7 89 89 NNE 9 15 29.91 1013 8 13 0.00 0.00
4:12 pm 16:12 Cloudy 41 5 39 4 93 93 NNE 10 17 29.91 1013 9 14 0.00 0.00
4:58 pm 16:58 Cloudy 42 5.4 39 3.8 90 90 NNE 8 13 29.89 1012 9 14 0.00 0.00
5:10 pm 17:10 Cloudy 43 6 39 4 87 87 NNE 7 11 29.91 1013 10 16 0.00 0.00
5:51 pm 17:51 Cloudy with Light Rain 43 6 39 4 87 87 N 8 13 29.91 1013 10 16 0.00 0.00
5:58 pm 17:58 Cloudy with Light Rain 42 5.5 39 3.9 90 90 N 8 13 29.91 1013 9 14 0.00 0.03
5:59 pm 17:59 Cloudy with Light Rain 43 6 39 4 87 87 N 9 15 29.91 1013 9 14 0.00 0.00
6:08 pm 18:08 Cloudy 43 6 39 4 87 87 N 9 15 29.91 1013 9 14 0.00 0.00
6:52 pm 18:52 Cloudy 43 6 39 4 87 87 N 8 13 29.88 1012 10 16 0.00 0.00
6:58 pm 18:58 Cloudy 42 5.5 39 4 90 90 N 8 13 29.89 1012 10 16 0.00 0.03
7:58 pm 19:58 Cloudy 42 5.6 40 4.3 91 91 N 10 17 29.86 1011 9 14 0.00 0.00
8:11 pm 20:11 Cloudy 43 6 39 4 87 87 NNE 12 19 29.83 1010 9 14 0.00 0.00
8:20 pm 20:20 Cloudy 43 6 41 5 93 93 NNE 12 19 29.83 1010 8 13 0.00 0.00
8:31 pm 20:31 Cloudy with Thunderstorms 43 6 41 5 93 93 VRB 5 7 29.85 1011 6 10 0.00 0.00
8:45 pm 20:45 Cloudy with Thunderstorms 41 5 41 5 100 100 NNE 10 17 29.83 1010 3 4 0.00 0.00
8:46 pm 20:46 Cloudy with Thunderstorms 41 5 41 5 100 100 NNE 9 15 29.83 1010 3 4 0.00 0.00
8:52 pm 20:52 Cloudy with Light Rain 41 5 41 5 100 100 NNE 9 15 29.83 1010 3 5 0.00 0.00
8:58 pm 20:58 Cloudy with Light Rain 42 5.3 41 5.2 99 99 NNE 8 13 29.83 1010 3 5 0.04 1.02
8:59 pm 20:59 Cloudy with Thunderstorms 41 5 41 5 100 100 N 7 11 29.83 1010 3 5 0.00 0.00
9:13 pm 21:13 Cloudy with Rain 41 5 41 5 100 100 NNE 7 11 29.83 1010 3 5 0.00 0.00
9:27 pm 21:27 Cloudy with Thunderstorms 41 5 41 5 100 100 NNE 10 17 29.80 1009 3 5 0.00 0.00
9:58 pm 21:58 Cloudy with Strong Thunderstorms 42 5.4 42 5.3 99 99 VRB 6 9 29.84 1011 3 4 0.17 4.32
10:40 pm 22:40 Cloudy with Strong Thunderstorms 43 6 41 5 93 93 N 9 15 29.77 1008 3 5 0.00 0.00
10:58 pm 22:58 Cloudy with Thunderstorms 43 6 43 6 100 100 NE 7 11 29.82 1010 3 5 0.34 8.64
11:30 pm 23:30 Cloudy with Heavy Rain 43 6 43 6 100 100 NNE 5 7 29.83 1010 3 4 0.00 0.00
11:58 pm 23:58 Cloudy with Heavy Rain 43 6 43 5.9 99 99 NNE 10 17 29.78 1008 3 5 0.27 6.86

Powered by AerisWeather